Location: Artiguedieu
(43.5000°N, 0.5454°E)
Time: 00:30:58
(UTC+00:00)

Transit 2A Rocket - Pass Details

Date: 06 August 2021
Orbit: 586 x 916 km, 66.7° (Epoch: 19 September)

Event Time Altitude Azimuth Distance (km) Brightness Sun altitude
Rises 18:55:59 0° 339° (NNW) 3,218 8.9 2.2°
Reaches altitude 10° 19:00:40 10° 17° (NNE) 2,388 7.7 1.4°
Maximum altitude 19:01:56 11° 30° (NNE) 2,361 7.5 1.2°
Drops below altitude 10° 19:03:14 10° 43° (NE) 2,436 7.4 0.9°
Sets 19:08:13 0° 80° (E) 3,453 7.9 0.1°
